Tracking 19909 objects as of 21-Oct-2019
HD Live streaming from Space Station
objects crossing your sky now

NAVSTAR 27 (USA 84)

Track NAVSTAR 27 (USA 84) now!
NAVSTAR 27 (USA 84) is classified as:


NORAD ID: 22108
Int'l Code: 1992-058A
Perigee: 21,367.0 km
Apogee: 21,438.8 km
Inclination: 55.0 °
Period: 767.7 minutes
Semi major axis: 27773 km
RCS: 3.0849 m2 (large)
Launch date: September 9, 1992
Source: United States (US)
Launch site: AIR FORCE EASTERN TEST RANGE (AFETR)
aabbcc
Your satellite tracking list
Your tracking list is empty




NASA's NSSDC Master Catalog

Two Line Element Set (TLE):
1 22108U 92058A   19293.02942298  .00000027  00000-0  00000+0 0  9995
2 22108  55.0067 249.9859 0012925 353.1887   6.7826  1.87562900197394
Source of the keplerian elements: AFSPC